Carmi, IL

7:57 AM CDT on June 24, 2017 (GMT -0500)
Carmi Municipal

Weather History for KCUL - July, 2013

Change the Weather History Date:

Tuesday, July 23, 2013

  Actual Average (KEHR) Record (KEHR)
Temperature  
Mean Temperature 80 °F -  
Max Temperature 92 °F 87 °F 106 °F (1933)
Min Temperature 69 °F 67 °F 45 °F (1947)
Cooling Degree Days 16    
Growing Degree Days 30 (Base 50)    
Moisture  
Dew Point 72 °F    
Average Humidity 74    
Maximum Humidity 94    
Minimum Humidity 53    
Precipitation  
Precipitation 0.09 in - - ()
Sea Level Pressure  
Sea Level Pressure 29.82 in    
Wind  
Wind Speed 6 mph (SW)    
Max Wind Speed 13 mph    
Max Gust Speed 16 mph    
Visibility 10 miles    
Events Rain , Thunderstorm    
Averages and records for this station are not official NWS values.
T = Trace of Precipitation, MM = Missing Value Source: NWS Daily Summary

Daily Weather History Graph

Daily Weather History Graph

Search for Another Location

Airport or City:

Trip Planner

Search our weather history database for the weather conditions in past years. The results will help you decide how hot, cold, wet, or windy it might be!

Date:

Astronomy

Jul. 23, 2013 Rise Set
Actual Time 5:48 AM CDT 8:09 PM CDT
Civil Twilight 5:18 AM CDT 8:39 PM CDT
Nautical Twilight 4:40 AM CDT 9:16 PM CDT
Astronomical Twilight 4:00 AM CDT 9:56 PM CDT
Moon 8:40 PM CDT (7/23) 6:54 AM CDT (7/23)
Length of Visible Light 15h 21m
Length of Day
14h 21m
Full, 99% of the Moon is Illuminated
Jul 23
Full
Jul 29
Last Quarter
Aug 6
New
Aug 14
First Quarter
Aug 20
Full

Hourly Weather History & Observations

Time (CDT) Temp. Heat Index Dew Point Humidity Pressure Visibility Wind Dir Wind Speed Gust Speed Precip Events Conditions
12:15 AM 77.7 °F - 73.4 °F 86% 29.85 in 10.0 mi SSW 8.1 mph - N/A Thunderstorm Clear
12:35 AM 76.8 °F - 72.9 °F 88% 29.85 in 10.0 mi SSW 5.8 mph - N/A   Clear
12:55 AM 76.8 °F - 73.0 °F 88% 29.85 in 7.0 mi South 3.5 mph - N/A   Clear
1:15 AM 75.7 °F - 72.7 °F 90% 29.85 in 7.0 mi SSE 5.8 mph - N/A   Clear
1:35 AM 75.6 °F - 73.0 °F 92% 29.86 in 7.0 mi South 6.9 mph - N/A   Mostly Cloudy
1:55 AM 76.3 °F - 73.4 °F 91% 29.85 in 7.0 mi South 5.8 mph - N/A   Overcast
2:15 AM 76.5 °F - 73.6 °F 91% 29.84 in 7.0 mi SSE 4.6 mph - N/A Thunderstorm Mostly Cloudy
2:35 AM 76.6 °F - 73.9 °F 91% 29.85 in 7.0 mi SSW 4.6 mph - N/A Thunderstorm Thunderstorm
3:18 AM 73.4 °F - 69.8 °F 88% 29.86 in 7.0 mi SW 11.5 mph - 0.04 in Rain , Thunderstorm Thunderstorms and Rain
3:38 AM 71.6 °F - 68.0 °F 88% 29.85 in 10.0 mi SW 9.2 mph - 0.06 in Rain , Thunderstorm Light Thunderstorms and Rain
3:58 AM 71.6 °F - 69.8 °F 94% 29.86 in 10.0 mi SSW 9.2 mph - N/A Thunderstorm Unknown
4:18 AM 73.4 °F - 69.8 °F 88% 29.83 in 10.0 mi SW 6.9 mph - 0.01 in   Scattered Clouds
4:38 AM 71.6 °F - 69.8 °F 94% 29.82 in 10.0 mi Calm Calm - 0.02 in   Light Drizzle
4:58 AM 71.6 °F - 69.8 °F 94% 29.81 in 10.0 mi Calm Calm - 0.01 in   Clear
5:18 AM 71.6 °F - 69.8 °F 94% 29.80 in 7.0 mi SE 4.6 mph - 0.01 in   Clear
5:38 AM 69.8 °F - 68.0 °F 94% 29.80 in 7.0 mi SSE 5.8 mph - 0.01 in   Clear
5:58 AM 69.8 °F - 68.0 °F 94% 29.79 in 10.0 mi SSE 4.6 mph - N/A   Clear
6:18 AM 71.6 °F - 68.0 °F 88% 29.81 in 7.0 mi South 3.5 mph - N/A   Clear
6:38 AM 71.6 °F - 69.8 °F 94% 29.82 in 7.0 mi Calm Calm - N/A   Clear
6:58 AM 71.6 °F - 69.8 °F 94% 29.82 in 10.0 mi Calm Calm - N/A   Clear
7:18 AM 73.4 °F - 69.8 °F 88% 29.82 in 10.0 mi SW 3.5 mph - N/A   Clear
7:38 AM 73.4 °F - 71.6 °F 94% 29.82 in 10.0 mi Calm Calm - N/A   Clear
7:58 AM 77.0 °F - 73.4 °F 89% 29.83 in 10.0 mi SSW 3.5 mph - N/A   Clear
8:18 AM 78.8 °F - 73.4 °F 83% 29.83 in 10.0 mi SSW 4.6 mph - N/A   Clear
8:38 AM 80.6 °F 86.2 °F 75.2 °F 84% 29.84 in 10.0 mi SW 6.9 mph - N/A   Clear
8:58 AM 80.6 °F 86.2 °F 75.2 °F 84% 29.85 in 10.0 mi SW 9.2 mph - N/A   Clear
9:18 AM 82.4 °F 89.5 °F 75.2 °F 79% 29.85 in 10.0 mi SW 9.2 mph - N/A   Clear
9:38 AM 82.4 °F 89.5 °F 75.2 °F 79% 29.86 in 10.0 mi SW 11.5 mph - N/A   Clear
9:58 AM 82.4 °F 89.5 °F 75.2 °F 79% 29.86 in 10.0 mi WSW 9.2 mph - N/A   Clear
10:18 AM 84.2 °F 90.9 °F 73.4 °F 70% 29.86 in 10.0 mi WSW 10.4 mph - N/A   Clear
10:40 AM 84.2 °F 90.9 °F 73.4 °F 70% 29.86 in 10.0 mi West 10.4 mph - N/A   Clear
10:58 AM 86.0 °F 93.4 °F 73.4 °F 66% 29.85 in 10.0 mi SW 8.1 mph - N/A   Clear
11:19 AM 87.8 °F 95.6 °F 73.4 °F 62% 29.84 in 10.0 mi SW 6.9 mph - N/A   Clear
11:35 AM 87.6 °F 95.2 °F 73.0 °F 62% 29.84 in 10.0 mi SSW 6.9 mph - N/A   Clear
11:55 AM 87.3 °F 94.9 °F 73.2 °F 63% 29.84 in 10.0 mi WSW 8.1 mph - N/A   Clear
12:15 PM 88.7 °F 96.7 °F 73.4 °F 60% 29.83 in 10.0 mi WSW 6.9 mph - N/A   Clear
12:35 PM 89.8 °F 98.6 °F 73.9 °F 59% 29.83 in 10.0 mi SW 3.5 mph - N/A   Clear
12:55 PM 90.5 °F 98.6 °F 73.0 °F 56% 29.82 in 10.0 mi WSW 6.9 mph - N/A   Clear
1:15 PM 90.9 °F 99.4 °F 73.0 °F 56% 29.81 in 10.0 mi West 8.1 mph - N/A   Clear
1:35 PM 91.9 °F 101.3 °F 73.8 °F 55% 29.80 in 10.0 mi West 8.1 mph - N/A   Scattered Clouds
1:55 PM 91.9 °F 100.1 °F 72.9 °F 53% 29.80 in 10.0 mi West 6.9 mph - N/A   Scattered Clouds
2:15 PM 90.5 °F 99.7 °F 73.9 °F 58% 29.80 in 10.0 mi West 10.4 mph - N/A   Scattered Clouds
2:35 PM 92.7 °F 103.0 °F 74.3 °F 55% 29.80 in 10.0 mi West 8.1 mph - N/A   Scattered Clouds
3:15 PM 92.3 °F 102.2 °F 73.8 °F 55% 29.80 in 10.0 mi West 12.7 mph 16.1 mph N/A   Scattered Clouds
3:35 PM 92.3 °F 100.9 °F 73.0 °F 53% 29.80 in 10.0 mi West 9.2 mph - N/A   Clear
3:55 PM 92.5 °F 101.3 °F 73.2 °F 53% 29.79 in 10.0 mi WSW 10.4 mph - N/A   Clear
4:15 PM 91.8 °F 100.3 °F 73.2 °F 54% 29.79 in 10.0 mi SW 9.2 mph - N/A   Scattered Clouds
4:35 PM 92.5 °F 101.9 °F 73.8 °F 54% 29.78 in 10.0 mi West 6.9 mph - N/A   Scattered Clouds
4:55 PM 92.7 °F 102.4 °F 73.6 °F 54% 29.77 in 10.0 mi West 10.4 mph - N/A   Scattered Clouds
5:15 PM 91.9 °F 101.3 °F 73.9 °F 55% 29.77 in 10.0 mi West 6.9 mph - N/A   Clear
5:35 PM 91.9 °F 101.3 °F 73.9 °F 55% 29.76 in 10.0 mi WNW 9.2 mph - N/A   Scattered Clouds
5:55 PM 91.4 °F 101.3 °F 74.5 °F 57% 29.76 in 10.0 mi West 10.4 mph - N/A   Scattered Clouds
6:15 PM 90.0 °F 99.6 °F 74.5 °F 60% 29.75 in 10.0 mi West 8.1 mph - N/A   Scattered Clouds
6:35 PM 89.2 °F 100.1 °F 75.6 °F 64% 29.75 in 10.0 mi West 6.9 mph - N/A   Scattered Clouds
6:55 PM 87.3 °F 96.3 °F 74.8 °F 66% 29.75 in 10.0 mi NW 6.9 mph 10.4 mph N/A Thunderstorm Overcast
7:15 PM 86.2 °F 96.0 °F 75.7 °F 71% 29.77 in 10.0 mi North 6.9 mph - N/A Thunderstorm Thunderstorm
7:35 PM 86.4 °F 93.0 °F 72.5 °F 63% 29.78 in 10.0 mi NNW 10.4 mph - N/A Thunderstorm Mostly Cloudy
7:55 PM 85.5 °F 90.8 °F 71.2 °F 62% 29.79 in 10.0 mi North 10.4 mph - N/A Thunderstorm Overcast
8:15 PM 83.7 °F 87.7 °F 69.8 °F 63% 29.80 in 10.0 mi North 6.9 mph - N/A Thunderstorm Mostly Cloudy
8:35 PM 82.9 °F 87.0 °F 70.2 °F 65% 29.81 in 10.0 mi North 4.6 mph - N/A   Overcast
8:55 PM 81.1 °F 85.0 °F 71.1 °F 71% 29.82 in 10.0 mi North 4.6 mph - N/A   Mostly Cloudy
9:15 PM 80.2 °F 84.2 °F 72.0 °F 76% 29.84 in 10.0 mi Calm Calm - N/A   Scattered Clouds
9:35 PM 81.3 °F 85.2 °F 70.9 °F 70% 29.86 in 10.0 mi North 5.8 mph - N/A   Clear
9:55 PM 80.6 °F 84.2 °F 70.7 °F 72% 29.88 in 10.0 mi SSE 6.9 mph - N/A   Scattered Clouds
10:15 PM 76.3 °F - 69.3 °F 79% 29.88 in 10.0 mi SSE 9.2 mph - N/A   Overcast
10:35 PM 75.6 °F - 68.5 °F 79% 29.88 in 10.0 mi Calm Calm - N/A   Overcast
10:55 PM 75.2 °F - 69.1 °F 81% 29.89 in 10.0 mi SSE 6.9 mph - N/A   Mostly Cloudy
11:15 PM 75.2 °F - 68.7 °F 80% 29.89 in 10.0 mi SSW 6.9 mph - N/A   Mostly Cloudy
11:35 PM 74.7 °F - 68.4 °F 81% 29.89 in 10.0 mi SW 5.8 mph - N/A   Scattered Clouds
11:55 PM 74.7 °F - 68.7 °F 82% 29.88 in 10.0 mi Calm Calm - N/A   Scattered Clouds